EHI
1 1 2 6 7 3 0 0 0 0 0 0 0 0 0 0 0 0 2 5 6 8 9 9 13 17 20 26 33 36 31 22 14 7 2 0 0 0 0 0 0 0 0 0 0 0 0 0 0
1 1 2 5 4 1 0 0 0 0 0 0 0 0 0 1 1 2 5 7 8 8 10 14 18 20 21 25 30 31 25 17 9 4 1 0 0 0 0 0 0 0 0 0 0 0 0 0 0
0 1 3 2 1 0 0 0 0 0 0 0 0 0 1 2 4 6 10 12 10 9 14 23 26 24 23 24 25 23 18 11 6 3 1 0 0 0 0 0 0 0 0 0 0 0 0 0 0
1 2 2 1 0 0 0 0 0 0 0 0 0 2 5 7 9 13 18 17 13 11 17 28 31 26 22 20 19 16 12 9 6 3 1 0 0 0 0 0 0 0 0 0 0 0 0 0 0
1 1 1 0 0 0 0 0 0 0 0 0 1 7 16 20 20 24 25 20 14 13 19 31 34 27 19 14 12 9 8 7 5 2 1 0 0 0 0 0 0 0 0 0 0 0 0 0 0
1 0 0 0 0 0 0 0 0 0 0 0 2 12 32 43 40 34 27 18 13 12 20 30 31 24 17 10 6 4 4 4 3 1 1 1 1 0 0 0 0 0 0 0 0 0 0 0 0
0 0 0 0 0 0 0 0 0 0 1 2 3 15 45 66 63 46 32 21 16 16 21 24 22 19 14 8 4 2 1 2 1 1 2 3 2 1 0 0 0 0 0 0 0 0 0 0 0
0 0 0 0 0 0 0 0 0 1 3 5 5 17 49 78 79 65 50 38 30 26 22 20 18 16 11 6 4 3 2 1 0 1 2 4 2 1 0 0 0 0 0 0 0 0 0 0 0
0 0 0 0 0 0 0 0 0 1 4 8 12 26 55 82 88 82 72 61 50 40 29 23 21 17 11 6 4 3 2 1 0 1 2 2 1 0 0 0 0 0 0 0 0 0 0 0 0
0 0 0 0 0 0 0 0 0 1 3 10 24 46 70 86 91 87 81 73 64 50 36 27 23 19 13 9 7 6 4 2 0 0 1 1 1 1 1 0 0 0 0 0 0 0 0 0 0
0 0 0 0 0 0 0 0 0 0 2 10 32 61 81 87 87 84 80 73 63 52 39 27 23 19 13 10 12 12 9 4 1 0 1 2 3 3 2 1 0 0 0 0 0 0 0 0 0
0 0 0 0 0 0 0 0 0 0 2 10 33 62 80 82 79 78 75 68 60 52 42 32 27 22 15 12 13 14 10 5 3 3 3 3 4 5 4 2 0 0 0 0 0 0 0 0 0
0 0 0 0 0 0 0 0 0 1 4 14 34 57 72 74 71 71 71 67 61 55 48 41 34 29 21 16 14 13 10 7 6 6 5 3 3 4 5 4 1 0 0 0 0 0 0 0 0
0 0 0 0 0 0 0 0 0 2 7 18 33 51 63 65 63 66 70 68 62 58 54 47 41 35 27 20 17 15 12 11 10 10 6 3 2 3 4 3 1 0 0 0 0 0 0 0 0
0 0 0 0 0 0 0 0 1 4 9 17 28 43 55 60 60 63 67 67 64 62 56 49 43 38 30 23 19 17 14 12 12 10 6 2 1 2 3 2 1 1 1 0 0 0 0 0 0
0 0 0 0 0 0 0 0 1 4 8 14 23 34 47 56 59 62 65 64 63 62 55 46 41 39 34 26 21 16 12 11 10 9 6 3 1 1 2 2 1 1 1 0 0 0 0 0 0
0 0 0 0 0 0 0 0 1 3 6 10 18 27 41 53 59 62 63 61 60 59 52 43 38 36 34 29 22 14 10 8 7 6 5 4 3 2 2 3 2 1 1 0 0 0 0 0 0
0 0 0 0 0 0 1 1 1 2 4 7 14 24 37 49 56 59 58 56 56 57 52 46 40 34 32 30 24 16 10 8 6 4 4 5 4 2 1 2 2 1 0 0 0 0 0 0 0
0 0 0 0 0 0 1 2 2 2 3 6 12 21 31 41 49 55 54 51 52 55 54 49 42 35 32 31 27 20 13 8 5 3 3 4 2 1 1 2 3 2 1 0 0 0 0 0 0
0 0 0 0 0 0 1 2 3 3 2 5 11 18 25 35 46 53 54 49 48 50 51 47 40 36 34 32 29 24 16 8 4 3 4 4 1 0 1 2 3 3 2 1 0 0 0 0 0
0 0 0 0 0 0 0 1 3 3 2 4 11 18 24 33 44 51 52 48 44 43 42 40 38 37 35 31 27 23 17 9 5 5 6 5 2 0 0 1 1 2 2 2 1 0 0 0 0
0 0 0 0 0 0 0 0 2 3 3 4 11 18 23 29 38 47 49 47 44 38 35 35 38 40 37 30 24 19 13 7 5 6 7 7 3 1 0 0 1 1 2 3 2 1 0 0 0
0 0 0 0 0 0 0 0 1 2 3 4 8 15 20 23 30 38 43 43 41 38 33 32 36 38 36 29 22 16 10 5 3 4 7 7 4 3 1 0 0 1 3 4 3 2 1 0 0
0 0 0 0 0 0 0 0 0 1 1 2 5 9 14 18 21 28 34 34 33 33 32 31 33 34 32 25 18 14 10 6 3 3 6 6 5 4 3 1 2 2 3 4 4 3 2 1 1
0 0 0 0 0 0 0 0 0 0 1 2 3 5 9 13 16 22 27 27 25 26 28 29 29 29 27 20 13 11 10 7 3 3 5 5 4 3 3 3 3 4 4 4 4 4 3 3 2
0 0 0 0 0 0 0 0 0 0 1 3 4 4 7 9 12 18 24 24 21 19 21 24 25 24 22 17 12 9 8 7 4 3 5 5 3 2 2 3 3 4 4 4 5 5 4 3 3
0 0 0 0 0 0 0 0 0 0 1 4 4 4 6 7 8 15 22 23 19 15 16 20 21 21 21 19 15 12 10 8 5 5 6 5 3 1 2 2 1 2 3 4 6 5 4 3 3
0 0 0 0 0 0 0 0 0 0 1 3 4 4 6 6 7 12 18 19 15 13 13 15 17 19 20 20 17 13 10 7 5 5 5 5 4 2 2 1 0 1 1 2 3 3 3 3 3
0 0 0 0 0 0 0 0 0 0 1 3 4 5 6 6 9 12 13 13 11 9 9 10 13 15 15 15 14 12 8 5 3 2 3 4 4 3 2 0 0 0 0 0 1 1 2 3 3
0 0 0 0 0 0 0 0 0 1 2 3 4 5 5 7 12 14 11 9 7 6 6 8 11 12 10 10 11 10 7 4 2 1 2 3 4 3 2 1 0 0 0 0 0 0 1 3 3
Wind_Speed
10 7 5 5 7 2 9 8 6 6 6 5 4 2 4 5 6 7 8 16 17 18 19 18 15 15 14 14 14 14 14 15 14 14 13 12 12 12 11 11 11 12 12 13 13 13 14 14 14
5 4 5 7 5 6 9 5 6 7 5 4 3 2 3 6 7 9 11 16 19 19 19 17 17 15 15 14 14 14 14 14 14 13 13 12 12 12 11 11 11 12 12 13 13 14 14 14 14
4 6 6 5 1 6 7 5 5 4 4 3 2 3 4 6 7 8 12 18 18 17 17 18 19 17 16 15 14 14 14 14 14 13 13 12 12 12 11 11 12 12 12 13 13 13 13 13 13
5 6 7 5 5 6 4 4 2 2 3 2 2 5 6 6 4 9 17 19 18 17 17 20 18 17 16 15 15 14 14 14 13 13 12 12 12 12 12 11 12 12 12 12 13 13 13 13 13
6 6 6 3 5 5 3 4 1 2 2 2 2 4 7 5 6 14 18 18 18 17 17 20 18 18 17 16 15 14 14 14 13 13 12 12 12 12 11 11 12 12 12 12 12 12 11 12 12
6 6 5 3 6 3 3 3 1 2 1 2 2 4 7 7 10 15 17 16 17 16 17 19 18 17 17 16 15 15 14 14 13 13 12 12 12 11 11 11 11 12 12 11 11 11 11 11 11
7 5 2 1 3 3 5 5 3 2 3 2 2 3 8 9 11 14 15 14 15 15 16 16 17 16 16 15 15 14 14 13 13 12 12 12 11 11 11 11 11 11 11 11 11 11 10 10 10
6 6 4 2 0 3 5 4 4 4 2 2 2 2 7 12 13 14 14 13 13 13 14 15 14 14 15 15 15 14 14 13 12 12 12 12 11 11 11 11 10 11 10 10 10 10 10 9 10
7 8 4 1 2 3 6 6 3 2 2 3 2 3 7 17 16 15 14 13 13 12 12 14 14 13 13 13 14 14 14 12 12 12 12 11 10 10 10 11 11 10 10 10 9 10 9 9 10
7 8 1 3 4 7 8 7 4 4 5 5 6 7 12 17 17 18 17 16 16 15 13 11 13 13 12 10 11 10 10 11 10 9 10 7 6 5 8 11 10 10 10 9 8 9 9 7 8
7 7 3 4 5 8 9 7 4 6 5 4 6 11 15 17 16 17 17 17 16 16 14 12 12 12 11 8 8 6 5 7 8 9 8 6 6 5 6 7 8 8 9 8 9 9 6 5 4
8 7 7 8 8 9 9 8 5 6 5 3 2 12 17 17 17 17 17 16 15 15 14 12 11 11 10 9 7 7 6 6 6 8 8 7 5 5 5 4 5 6 4 4 5 4 4 4 4
11 9 9 9 10 9 9 8 7 6 4 0 5 12 15 15 14 14 14 14 15 15 15 14 12 12 10 8 7 7 6 7 7 7 7 6 6 5 5 4 3 4 4 5 4 4 5 4 4
7 9 11 11 10 8 9 8 6 4 1 3 7 10 12 13 14 14 15 15 15 15 15 14 13 13 11 9 7 7 7 6 6 7 8 7 5 5 5 5 4 4 4 4 4 5 5 4 3
9 11 12 9 7 4 8 10 5 1 2 5 7 8 10 11 13 14 15 15 15 14 15 15 14 14 13 11 9 7 6 7 6 6 7 7 6 6 5 5 5 4 4 4 4 5 4 4 4
10 11 10 5 4 3 9 8 1 0 3 4 6 7 9 10 12 12 13 13 13 14 14 14 12 14 13 10 9 7 6 6 5 6 6 8 6 6 5 5 5 5 4 5 4 4 4 3 3
11 10 8 4 2 4 8 8 2 2 4 4 5 7 8 9 11 11 13 13 13 13 14 14 12 13 13 11 9 7 6 6 5 5 6 7 7 7 6 4 4 5 5 4 5 4 4 4 3
7 8 7 5 2 7 9 8 4 2 4 4 5 6 8 9 10 10 12 12 12 12 12 13 13 12 11 10 8 6 7 6 5 5 5 6 6 7 6 5 6 6 5 4 3 3 2 2 3
7 9 8 6 4 8 8 7 5 3 4 4 5 6 7 8 9 10 11 12 12 12 12 13 13 12 10 9 9 8 8 7 6 6 7 8 7 7 6 5 6 6 5 5 6 4 5 4 3
11 12 10 5 2 7 8 8 5 3 4 4 4 5 7 8 10 11 12 12 12 13 13 13 13 13 12 9 8 7 7 6 6 6 7 8 8 7 7 6 6 7 5 5 5 5 4 4 4
13 13 9 7 6 7 8 10 6 4 4 4 5 5 6 8 10 11 12 12 12 12 13 12 13 13 13 11 8 7 6 5 6 7 7 8 8 8 7 8 7 6 7 6 7 7 6 4 4
12 9 9 8 9 5 4 9 4 4 5 5 5 5 6 8 10 11 12 12 12 12 12 12 13 13 12 12 11 13 10 9 9 7 7 8 9 9 9 8 7 7 6 6 7 7 6 5 4
9 3 6 7 8 9 8 9 4 3 5 3 3 4 5 7 9 10 11 11 11 11 11 11 12 13 13 13 13 12 11 9 6 7 8 8 8 9 9 9 8 7 7 7 6 6 7 6 5
7 6 6 8 9 11 7 8 6 1 2 1 3 4 5 6 7 9 9 10 10 10 10 11 12 12 13 14 13 13 12 10 9 9 9 8 7 8 10 9 8 8 7 7 7 7 8 6 5
12 10 8 10 9 7 2 7 4 2 1 1 2 5 6 7 8 9 10 10 10 10 10 11 11 12 13 14 13 13 12 11 11 10 9 9 7 7 9 9 8 7 7 7 7 7 6 6 6
15 15 10 7 6 4 6 6 1 2 1 1 3 5 6 7 8 9 9 9 9 10 10 10 11 11 12 13 12 12 11 9 8 10 8 9 7 7 8 9 9 8 8 8 7 7 7 5 6
14 15 14 10 8 7 4 3 3 3 3 3 5 6 7 7 7 8 9 9 9 9 9 10 10 10 10 11 11 10 11 9 8 8 8 7 6 6 9 9 8 8 8 7 7 6 6 6 6
12 11 8 10 8 9 6 6 3 4 4 5 5 7 7 7 7 8 8 9 8 8 8 9 9 9 9 9 9 8 9 9 8 8 8 8 8 7 8 9 9 8 8 8 7 6 6 6 5
12 11 10 9 9 8 5 2 4 3 3 4 5 6 7 7 8 8 8 8 8 8 8 8 8 8 8 8 8 8 8 8 8 8 8 8 8 8 9 9 9 9 9 8 7 7 7 7 6
12 12 12 10 8 8 8 1 7 4 3 3 5 6 7 7 8 8 9 8 8 8 8 8 8 8 8 8 8 7 7 7 7 7 8 8 8 8 9 9 9 9 9 8 8 8 7 7 7
Wind_Direction
200 208 230 243 238 172 70 64 54 62 68 64 76 42 27 34 17 62 113 143 143 144 140 148 146 142 138 135 133 133 134 135 134 133 131 129 127 124 121 116 113 111 109 107 106 107 107 107 107
199 211 237 242 258 88 80 63 60 54 78 100 107 91 65 68 57 102 136 143 148 145 145 149 144 145 141 138 136 135 135 135 135 134 134 132 130 126 123 119 117 115 113 111 109 109 108 108 108
208 238 263 253 33 58 69 60 60 90 125 142 119 57 42 67 102 130 143 150 151 145 144 138 149 147 145 142 140 139 138 137 136 136 136 134 131 127 125 123 120 118 115 113 112 111 110 110 110
226 231 239 249 85 62 33 32 40 146 152 152 143 105 87 63 112 137 144 155 150 146 147 141 152 149 148 146 143 142 141 140 138 137 136 134 131 128 126 125 121 119 116 115 114 113 113 113 113
244 258 239 176 82 66 32 6 297 231 165 153 186 112 104 92 118 138 151 157 153 152 146 144 154 151 150 149 148 145 143 142 140 138 135 132 129 128 127 125 122 120 119 117 117 116 117 118 117
247 251 240 124 93 75 41 19 269 266 220 165 187 138 103 119 138 148 155 159 156 153 147 143 153 153 153 153 151 149 147 145 143 140 136 132 129 129 128 125 124 123 121 120 121 120 120 121 121
273 271 265 71 96 87 28 4 327 284 239 198 194 156 124 140 144 153 156 160 158 155 149 150 157 158 156 156 155 154 151 149 146 142 139 137 133 131 130 128 127 125 125 125 126 125 124 125 125
282 271 226 176 168 57 21 357 346 310 326 86 200 210 142 148 149 153 155 161 159 158 154 154 162 160 163 161 159 156 153 152 150 147 144 140 137 135 135 140 129 129 129 129 130 129 127 126 128
261 253 223 98 351 360 354 335 346 302 202 164 168 33 103 140 150 154 157 162 164 165 163 164 161 164 169 163 156 160 157 156 157 153 150 159 158 147 155 126 132 136 134 132 133 133 132 135 134
246 256 299 11 331 323 326 319 318 243 216 186 155 117 128 148 158 164 167 170 171 171 171 169 165 166 170 163 158 167 168 161 175 158 162 169 146 145 131 123 138 138 137 138 135 139 156 183 147
244 270 316 297 313 315 310 310 296 262 253 229 193 159 156 163 168 173 174 177 174 170 173 173 172 170 169 163 162 165 165 161 169 160 164 156 152 150 144 150 150 151 161 157 148 173 174 162 129
249 262 277 289 306 303 304 307 293 272 298 341 176 160 166 174 177 180 179 178 173 171 174 174 172 172 174 169 164 164 167 166 166 159 171 164 165 162 152 158 154 162 161 153 167 164 149 146 149
241 265 276 278 286 293 291 281 283 282 297 178 148 161 173 179 182 185 179 174 173 173 175 176 176 173 172 171 174 170 171 170 164 160 173 175 170 169 157 156 164 173 153 164 173 162 153 160 163
265 271 274 276 281 280 276 274 258 268 268 177 171 174 178 181 178 176 173 176 177 177 177 177 179 175 174 177 180 171 172 174 169 167 170 185 176 165 167 167 171 171 172 160 169 159 167 175 157
266 269 265 255 265 277 280 258 242 269 234 203 187 179 178 180 177 177 177 179 179 179 178 179 179 177 178 180 180 174 176 174 176 165 170 182 183 168 181 172 179 173 161 158 181 166 170 171 168
246 252 248 224 257 264 272 275 91 187 232 214 191 180 181 182 183 180 180 181 179 178 178 180 181 178 180 181 182 177 176 176 177 168 173 181 178 175 192 184 180 171 180 178 173 188 176 172 177
229 240 245 216 213 275 273 286 327 278 235 220 197 185 182 178 186 182 181 180 179 178 178 179 184 182 181 180 180 181 173 179 178 174 178 176 179 182 196 194 170 183 189 187 195 171 195 177 181
240 246 246 254 249 282 274 279 285 257 244 230 202 190 185 184 185 181 179 177 176 177 179 179 181 186 181 176 175 180 180 181 186 180 178 176 184 189 199 193 184 195 190 189 193 164 195 195 192
276 269 266 272 294 283 274 279 282 269 244 234 216 199 192 188 173 171 173 174 174 176 179 181 183 181 179 177 180 181 181 184 186 190 184 189 193 189 204 201 181 202 191 189 184 189 181 192 180
246 254 256 255 256 281 280 275 265 253 252 251 234 212 195 180 168 167 171 174 176 179 183 183 184 181 183 183 184 183 177 189 186 191 188 196 196 196 200 208 200 195 186 189 193 198 208 185 191
235 247 260 278 288 245 268 256 229 220 226 233 232 214 194 181 176 172 174 178 181 184 186 186 184 183 186 182 177 172 169 180 186 190 193 197 198 202 210 203 211 197 203 188 194 197 207 200 194
235 238 255 264 266 250 265 285 250 231 233 231 222 201 189 179 179 175 178 182 185 185 186 186 184 183 184 184 187 185 187 192 195 190 189 191 200 203 203 205 207 206 211 189 198 199 207 210 205
240 235 243 252 258 267 243 270 279 222 252 228 202 189 178 175 179 177 180 184 186 184 185 186 184 185 186 191 192 193 196 196 187 190 186 192 194 202 203 202 201 204 211 200 205 187 210 210 220
213 210 224 238 246 250 254 269 278 268 295 268 160 163 163 165 170 171 174 178 182 182 183 184 185 189 188 192 195 198 199 194 188 195 192 195 192 198 200 201 200 204 205 197 199 200 201 219 224
204 215 218 218 222 241 167 254 280 16 359 297 184 161 158 165 168 169 173 176 179 182 184 183 184 187 187 190 194 197 198 195 195 197 197 197 194 195 194 198 197 200 201 200 199 199 206 203 208
206 222 239 250 245 217 176 246 300 84 71 175 156 148 159 168 167 170 174 175 177 181 182 183 184 184 184 187 191 194 194 196 199 201 199 199 202 198 186 194 195 197 199 201 197 200 197 195 203
211 225 242 258 270 273 240 231 203 155 168 161 157 160 165 164 165 167 167 168 171 176 180 182 183 183 183 186 186 191 194 198 199 199 201 200 199 191 186 190 194 195 195 196 192 202 194 189 202
233 224 220 235 242 248 232 233 223 163 157 150 155 162 158 160 164 159 162 163 164 167 168 175 180 182 182 182 184 187 192 195 198 202 202 199 196 194 188 191 189 188 187 187 195 192 192 197 203
194 210 223 231 247 258 250 191 85 128 150 160 155 157 158 161 158 155 154 157 161 163 166 171 174 178 179 181 183 184 188 192 198 200 200 196 194 191 191 192 188 187 186 184 191 200 188 197 196
207 212 211 223 221 243 270 123 98 111 131 147 144 146 153 158 154 152 153 158 166 168 170 174 176 181 180 180 180 183 187 189 195 198 195 193 190 190 191 189 186 187 187 186 189 196 191 194 195